FW1583 Falls Church VA US current weather conditions

sailwx.info

Wind from 202

Air temperature 19.4° C
Dewpoint 12.2° C

Last reported at 2020-Oct-01 14:48 UTC.
Time now 2020-Oct-01 15:37 UTC

Location: N 38°52' W 077°09'.
View on Google Maps.

See reports from other nearby stations

  
Tides and Currents Weather Stations Pressure Air Temp Water Temp Dewpoint Dewpoint Depression Visibility Wind Speed Wind Dir Waves Ship Positions
date/time (UTC)wind fromknots sea level pressurealtimeterstation pressurevisibilityair tempwater tempwave heightnotes
2020-Oct-01 14:48 202 19.4
2020-Oct-01 14:38 211 19.4
2020-Oct-01 14:29 292 19.4
2020-Oct-01 14:19 292 0 18.9
2020-Oct-01 14:10 247 18.9
2020-Oct-01 14:00 202 18.3
2020-Oct-01 13:50 292 17.8
2020-Oct-01 13:41 292 16.7
2020-Oct-01 13:31 247 16.1
2020-Oct-01 13:21 247 15.6
2020-Oct-01 13:12 225 15.0
2020-Oct-01 13:03 292 14.4
2020-Oct-01 12:54 292 14.4
2020-Oct-01 12:45 292 13.9
2020-Oct-01 12:36 292 13.9
2020-Oct-01 12:26 292 13.3
2020-Oct-01 12:17 292 13.3
2020-Oct-01 12:07 292 12.8
2020-Oct-01 11:57 337 12.8
2020-Oct-01 11:47 337 12.8
2020-Oct-01 11:37 337 12.2
2020-Oct-01 11:28 247 12.2
2020-Oct-01 11:18 292 12.2
2020-Oct-01 11:09 292 12.2
2020-Oct-01 11:00 292 12.2
2020-Oct-01 10:51 292 12.2
2020-Oct-01 10:42 292 0 12.2
2020-Oct-01 10:32 318 12.2
2020-Oct-01 10:22 283 11.7
2020-Oct-01 10:13 292 11.7
2020-Oct-01 10:04 292 12.2
2020-Oct-01 09:54 292 12.2
2020-Oct-01 09:45 292 12.2
2020-Oct-01 09:35 292 12.2
2020-Oct-01 09:26 292 12.2
2020-Oct-01 09:17 292 12.2
2020-Oct-01 09:07 292 12.2
2020-Oct-01 08:58 292 12.2
2020-Oct-01 08:49 292 12.2
2020-Oct-01 08:39 292 12.8
2020-Oct-01 08:30 292 12.8
2020-Oct-01 08:20 292 12.8
2020-Oct-01 08:10 292 12.8
2020-Oct-01 08:00 292 12.8
2020-Oct-01 07:51 292 12.8
2020-Oct-01 07:41 292 12.8
2020-Oct-01 07:32 292 12.8
2020-Oct-01 07:22 292 13.3
2020-Oct-01 07:12 292 13.3
2020-Oct-01 07:03 292 13.3
2020-Oct-01 06:53 292 13.3
2020-Oct-01 06:43 292 13.3
2020-Oct-01 06:34 337 13.3
2020-Oct-01 06:25 337 13.3
2020-Oct-01 06:15 337 13.3
2020-Oct-01 06:06 337 13.9
2020-Oct-01 05:56 337 13.9
2020-Oct-01 05:47 292 13.9
2020-Oct-01 05:38 292 13.9
2020-Oct-01 05:29 292 13.9
2020-Oct-01 05:19 292 13.9
2020-Oct-01 05:09 094 13.9
2020-Oct-01 05:00 112 14.4
2020-Oct-01 04:50 315 14.4
2020-Oct-01 04:40 292 14.4
2020-Oct-01 04:31 283 14.4
2020-Oct-01 04:21 337 15.0
2020-Oct-01 04:11 251 15.0
2020-Oct-01 04:02 067 15.0
2020-Oct-01 03:53 315 15.0
2020-Oct-01 03:43 337 15.6
2020-Oct-01 03:33 337 0 15.6
2020-Oct-01 03:24 292 15.0
2020-Oct-01 03:14 038 15.0
2020-Oct-01 03:05 331 0 15.0
2020-Oct-01 02:56 337 15.0
2020-Oct-01 02:46 292 14.4
2020-Oct-01 02:37 112 14.4
2020-Oct-01 02:27 157 14.4
2020-Oct-01 02:18 292 14.4
2020-Oct-01 02:08 292 15.0
2020-Oct-01 01:58 292 15.0
2020-Oct-01 01:49 292 15.0
2020-Oct-01 01:39 292 15.0
2020-Oct-01 01:30 292 15.0
2020-Oct-01 01:21 315 15.0
2020-Oct-01 01:11 315 15.0
2020-Oct-01 01:01 315 15.0
2020-Oct-01 00:51 315 15.0
2020-Oct-01 00:42 315 15.0
2020-Oct-01 00:32 315 15.6
2020-Oct-01 00:23 315 15.6
2020-Oct-01 00:13 315 15.6
2020-Oct-01 00:03 315 15.6
2020-Sep-30 23:53 315 16.1
2020-Sep-30 23:43 315 16.1
2020-Sep-30 23:34 315 16.1
2020-Sep-30 23:25 315 16.7
2020-Sep-30 23:15 315 16.7
2020-Sep-30 23:06 315 17.2
2020-Sep-30 22:57 315 17.2
2020-Sep-30 22:47 315 17.8
2020-Sep-30 22:38 315 17.8
2020-Sep-30 22:29 360 18.3
2020-Sep-30 22:19 337 18.9
2020-Sep-30 22:09 292 19.4
2020-Sep-30 21:59 308 0 20.0
2020-Sep-30 21:49 337 21.1
2020-Sep-30 21:40 285 21.1
2020-Sep-30 21:31 074 21.7
2020-Sep-30 21:21 292 21.1
2020-Sep-30 21:12 263 1 21.1
2020-Sep-30 21:02 275 2 21.7
2020-Sep-30 20:53 259 1 21.7
2020-Sep-30 20:43 073 22.2
2020-Sep-30 20:34 291 1 22.2
2020-Sep-30 20:24 292 22.2
2020-Sep-30 20:15 323 0 21.7
2020-Sep-30 20:05 312 2 22.2
2020-Sep-30 19:56 307 1 21.7
2020-Sep-30 19:47 102 21.7
2020-Sep-30 19:37 333 0 21.7
2020-Sep-30 19:27 091 21.1
2020-Sep-30 19:17 292 21.7
2020-Sep-30 19:07 247 21.7
2020-Sep-30 18:57 282 1 21.7
2020-Sep-30 18:47 292 20.6
2020-Sep-30 18:38 290 4 21.1
2020-Sep-30 18:29 083 21.1
2020-Sep-30 18:19 270 20.6
2020-Sep-30 18:10 304 0 20.0
2020-Sep-30 18:00 201 0 20.0
2020-Sep-30 17:50 283 2 19.4
2020-Sep-30 17:41 302 19.4
2020-Sep-30 17:32 265 0 20.0
2020-Sep-30 17:22 251 0 20.0
2020-Sep-30 17:13 072 0 20.0
2020-Sep-30 17:03 276 0 19.4
2020-Sep-30 16:54 270 1 18.9
2020-Sep-30 16:45 256 0 18.9
2020-Sep-30 16:36 251 1 18.9
2020-Sep-30 16:26 304 1 18.9
2020-Sep-30 16:17 247 18.3
2020-Sep-30 16:08 292 18.3
2020-Sep-30 15:58 285 1 18.3
2020-Sep-30 15:49 021 17.8
2020-Sep-30 15:39 274 1 17.2
2020-Sep-30 15:29 337 17.2
2020-Sep-30 15:20 321 0 17.2
2020-Sep-30 15:10 037 0 16.7
2020-Sep-30 15:00 266 2 16.1
2020-Sep-30 14:50 292 1 16.1
2020-Sep-30 14:41 291 1 15.6
2020-Sep-30 14:31 348 15.6
2020-Sep-30 14:21 277 0 15.6
2020-Sep-30 14:11 218 15.0
2020-Sep-30 14:02 291 1 15.0
2020-Sep-30 13:52 269 14.4
2020-Sep-30 13:42 271 1 13.9
2020-Sep-30 13:32 348 13.3
2020-Sep-30 13:22 340 13.3
2020-Sep-30 13:12 150 12.8
2020-Sep-30 13:02 310 1 12.8
2020-Sep-30 12:53 202 12.2
2020-Sep-30 12:44 220 12.2
2020-Sep-30 12:34 292 11.7
2020-Sep-30 12:25 327 11.7
2020-Sep-30 12:15 297 11.7
2020-Sep-30 12:05 292 11.1
2020-Sep-30 11:56 247 11.1
2020-Sep-30 11:46 315 11.1
2020-Sep-30 11:36 315 11.1
2020-Sep-30 11:27 315 11.1
2020-Sep-30 11:17 315 11.1
2020-Sep-30 11:07 315 11.1
2020-Sep-30 10:58 315 11.1
2020-Sep-30 10:48 315 11.7
2020-Sep-30 10:38 315 0 11.7
2020-Sep-30 10:28 292 11.7
2020-Sep-30 10:19 273 0 11.7
2020-Sep-30 10:09 292 0 11.7
2020-Sep-30 09:59 292 11.7
2020-Sep-30 09:49 292 11.7
2020-Sep-30 09:40 292 11.7
2020-Sep-30 09:30 292 11.7
2020-Sep-30 09:20 202 11.7
2020-Sep-30 09:10 225 11.7
2020-Sep-30 09:00 292 11.7
2020-Sep-30 08:51 241 11.7
2020-Sep-30 08:42 292 11.7
2020-Sep-30 08:32 292 11.7
2020-Sep-30 08:23 292 11.7
2020-Sep-30 08:13 337 11.7
2020-Sep-30 08:04 102 11.7
2020-Sep-30 07:54 277 12.2
2020-Sep-30 07:45 310 12.2
2020-Sep-30 07:36 275 12.2
2020-Sep-30 07:26 238 12.2
2020-Sep-30 07:17 296 0 12.2
2020-Sep-30 07:08 101 12.2
2020-Sep-30 06:58 291 12.2
2020-Sep-30 06:48 266 12.2
2020-Sep-30 06:39 292 12.2
2020-Sep-30 06:29 292 12.2
2020-Sep-30 06:19 288 1 12.2
2020-Sep-30 06:09 305 12.2
2020-Sep-30 05:59 337 12.2
2020-Sep-30 05:49 337 12.2
2020-Sep-30 05:39 337 12.2
2020-Sep-30 05:30 337 12.2
2020-Sep-30 05:20 337 12.2
2020-Sep-30 05:10 022 11.7
2020-Sep-30 05:01 337 11.7
2020-Sep-30 04:51 337 12.2
2020-Sep-30 04:42 337 0 12.2
2020-Sep-30 04:14 060 12.2
2020-Sep-30 04:04 337 12.2
2020-Sep-30 03:55 337 12.2
2020-Sep-30 03:45 360 12.2
2020-Sep-30 03:36 350 12.2
2020-Sep-30 03:26 090 12.2
2020-Sep-30 03:16 332 12.2
2020-Sep-30 03:06 337 12.2
2020-Sep-30 02:57 337 0 12.2
2020-Sep-30 02:47 013 0 12.2
2020-Sep-30 02:37 337 0 12.2
2020-Sep-30 02:27 344 0 12.2
2020-Sep-30 02:18 348 0 12.8
2020-Sep-30 02:08 294 0 12.8
2020-Sep-30 01:59 337 0 12.8
2020-Sep-30 01:49 319 1 13.3
2020-Sep-30 01:39 337 13.3
2020-Sep-30 01:29 332 0 13.3
2020-Sep-30 01:20 318 1 13.3
2020-Sep-30 01:10 323 1 13.9
2020-Sep-30 01:01 337 0 13.9
2020-Sep-30 00:51 328 0 13.9
2020-Sep-30 00:41 332 2 14.4
2020-Sep-30 00:32 337 0 15.0
2020-Sep-30 00:22 326 0 15.0
2020-Sep-30 00:12 337 15.0
2020-Sep-30 00:02 331 0 15.6
2020-Sep-29 23:52 318 15.6
2020-Sep-29 23:42 337 0 16.1
2020-Sep-29 23:32 337 0 16.1
2020-Sep-29 23:23 329 1 16.7
2020-Sep-29 23:13 031 16.7
2020-Sep-29 23:04 315 17.2
2020-Sep-29 22:54 320 0 17.8
2020-Sep-29 22:44 002 17.8
2020-Sep-29 22:34 041 17.8
2020-Sep-29 22:25 337 17.8
2020-Sep-29 22:16 022 18.3
2020-Sep-29 22:06 337 0 18.3
2020-Sep-29 21:56 337 0 18.9
2020-Sep-29 21:46 022 18.9
2020-Sep-29 21:36 337 19.4
2020-Sep-29 21:26 292 20.0
2020-Sep-29 21:16 315 0 20.6
2020-Sep-29 21:06 338 21.1
2020-Sep-29 20:56 317 21.7
2020-Sep-29 20:46 337 0 21.7
2020-Sep-29 20:36 337 0 22.8
2020-Sep-29 20:27 337 23.3
2020-Sep-29 20:18 292 24.4
2020-Sep-29 20:08 333 0 24.4
2020-Sep-29 19:59 315 0 25.0
2020-Sep-29 19:49 337 25.0
2020-Sep-29 19:39 337 25.0
2020-Sep-29 19:30 337 24.4
2020-Sep-29 19:20 337 25.0
2020-Sep-29 19:10 292 0 25.0
2020-Sep-29 19:01 292 25.0
2020-Sep-29 18:51 313 26.1
2020-Sep-29 18:42 265 0 26.7
2020-Sep-29 18:32 134 27.2
2020-Sep-29 18:23 157 26.7
2020-Sep-29 18:14 112 26.1
2020-Sep-29 18:04 112 25.6
2020-Sep-29 17:54 135 25.6
2020-Sep-29 17:44 292 25.0
2020-Sep-29 17:35 292 25.0
2020-Sep-29 17:25 133 25.6
2020-Sep-29 17:15 294 25.6
2020-Sep-29 17:06 110 0 25.6
2020-Sep-29 16:57 112 25.0
2020-Sep-29 16:47 156 24.4
2020-Sep-29 16:37 333 0 24.4
2020-Sep-29 16:27 157 24.4
2020-Sep-29 16:18 337 24.4
2020-Sep-29 16:09 292 0 24.4
2020-Sep-29 16:00 315 0 24.4
2020-Sep-29 15:50 337 0 23.9
2020-Sep-29 15:40 337 23.3
2020-Sep-29 15:31 050 23.3
2020-Sep-29 15:21 292 22.8
2020-Sep-29 15:11 247 22.8
2020-Sep-29 15:01 315 22.8